Flag for Germany Weather past 2 weeks in Offenburg, Baden-Württemberg, Germany

Now
45 °F

Overcast.


Feels Like: 45 °F
Forecast: 35 / 39 °F
Wind: 2 mph from South

Location: Lahr

Current Time: Feb 27, 2015 at 12:36:41 AM

Latest Report: Feb 27, 2015 at 12:00 AM


Visibility: 34 mi

Pressure: 29.91 "Hg

Humidity: 56%

Dew point: 30 °F

Location of OffenburgLocation

Historic Weather in Offenburg — Graph

°F

Offenburg temperature yesterday

Maximum temperature yesterday: 52 °F (at 3:00 PM)
Minimum temperature yesterday: 30 °F (at 1:00 AM)
Average temperature yesterday: 44 °F

Past Weeks' High & Low Weather Summary

 TemperatureHumidityPressure
High57 °F (Feb 20, 4:00 PM)100% (Feb 12, 3:00 AM)30.74 "Hg (Feb 12, 3:00 AM)
Low25 °F (Feb 20, 4:00 AM)26% (Feb 20, 9:00 PM)29.55 "Hg (Feb 23, 5:00 PM)
Average37 °F85%30.08 "Hg
* Reported Feb 11 11:00 PM — Feb 26 11:00 PM, Offenburg, Weather by CustomWeather, © 2015

Note: Actual official high and low records may vary slightly from our data, if they occured in-between our weather recording intervals... More about our weather records

Advertising

Offenburg weather history for previous 24 hours

 ConditionsComfort  
Time TempWeatherWind HumidityBarometerVisibility
11:00 PM
Thu, Feb 26
44 °FOvercast.2 mph62%29.93 "Hg25 mi
10:00 PM45 °FOvercast.3 mph62%29.95 "Hg19 mi
9:00 PM46 °FOvercast.1 mph58%29.97 "Hg31 mi
8:00 PM47 °FOvercast.3 mph60%29.99 "Hg37 mi
7:00 PM48 °FOvercast.2 mph49%30.01 "Hg43 mi
6:00 PM49 °FOvercast.2 mph48%30.01 "Hg43 mi
5:00 PM51 °FPartly sunny.3 mph46%30.02 "Hg37 mi
4:00 PM51 °FScattered clouds.5 mph43%30.03 "Hg37 mi
3:00 PM52 °FPassing clouds.5 mph39%30.06 "Hg2 mi
2:00 PM51 °FPassing clouds.3 mph44%30.08 "Hg37 mi
1:00 PM49 °FPassing clouds.2 mph45%30.11 "Hg37 mi
12:00 PM47 °FPassing clouds.1 mph55%30.14 "Hg37 mi
11:00 AM44 °FPassing clouds.1 mph58%30.16 "Hg34 mi
10:00 AMN/APassing clouds.12 mphN/AN/A1 mi
9:00 AM39 °FScattered clouds.3 mph70%30.19 "Hg31 mi
3:00 AM34 °FOvercast.1 mph89%30.20 "Hg17 mi
2:00 AM33 °FOvercast.1 mph93%30.20 "Hg12 mi
1:00 AM30 °FPassing clouds.1 mph90%30.20 "Hg14 mi
12:00 AM33 °FClear.No wind87%30.19 "Hg18 mi
Weather by CustomWeather, © 2015

See weather overviewHow to use our weather pages